Change the Weather History Date:

Monday, December 17, 2012

  Actual Average Record
Temperature  
Mean Temperature 83 °F -  
Max Temperature 89 °F 90 °F - ()
Min Temperature 77 °F 77 °F - ()
Cooling Degree Days 18    
Growing Degree Days 33 (Base 50)    
Moisture  
Dew Point 75 °F    
Average Humidity 76    
Maximum Humidity 94    
Minimum Humidity 54    
Precipitation  
Precipitation 0.71 in 0.46 in - ()
Sea Level Pressure  
Sea Level Pressure 29.76 in    
Wind  
Wind Speed 6 mph ()    
Max Wind Speed 10 mph    
Max Gust Speed -    
Visibility 8.0 miles    
Events Rain    
T = Trace of Precipitation, MM = Missing Value Source: Averaged Metar Reports

Daily Weather History Graph

Daily Weather History Graph

Search for Another Location

Airport or City:

Trip Planner

Search our weather history database for the weather conditions in past years. The results will help you decide how hot, cold, wet, or windy it might be!

Date:

Astronomy

Dec. 17, 2012 Rise Set
Actual Time 6:16 AM ACST 7:08 PM ACST
Civil Twilight 5:53 AM ACST 7:31 PM ACST
Nautical Twilight 5:26 AM ACST 7:59 PM ACST
Astronomical Twilight 4:58 AM ACST 8:27 PM ACST
Moon 10:00 AM ACST (12/17) 10:43 PM ACST (12/17)
Length of Visible Light 13h 38m
Length of Day
12h 51m
Waxing Crescent, 19% of the Moon is Illuminated
Dec 17
Waxing Crescent
Dec 20
First Quarter
Dec 28
Full
Jan 5
Last Quarter
Jan 12
New

Hourly Weather History & Observations

Time (ACST) Temp. Heat Index Dew Point Humidity Pressure Visibility Wind Dir Wind Speed Gust Speed Precip Events Conditions
12:00 AM 80 °F - 76 °F 84% 29.79 in 19 mi SSE 6.9 mph - -   Partly Cloudy
12:00 AM 80.6 °F 87.1 °F 77.0 °F 89% 29.80 in - SSE 6.9 mph - N/A   Clear
12:30 AM 80 °F - 76 °F 84% 29.79 in - South 6.9 mph - -  
12:30 AM 80.6 °F 86.2 °F 75.2 °F 84% 29.80 in - South 6.9 mph - N/A   Clear
1:00 AM 80.6 °F 86.2 °F 75.2 °F 84% 29.77 in - SE 5.8 mph - N/A   Clear
1:30 AM 78.8 °F - 75.2 °F 89% 29.77 in - East 4.6 mph - N/A   Clear
2:00 AM 78.8 °F - 77.0 °F 94% 29.74 in - SSE 4.6 mph - N/A   Clear
2:30 AM 78.8 °F - 75.2 °F 89% 29.74 in - ESE 3.5 mph - N/A   Clear
3:00 AM 79 °F - 75 °F 84% 29.75 in 19 mi ESE 5.8 mph - -   Partly Cloudy
3:00 AM 78.8 °F - 75.2 °F 89% 29.74 in - ESE 5.8 mph - N/A   Clear
3:30 AM 78 °F - 75 °F 88% 29.75 in - East 5.8 mph - -  
3:30 AM 78.8 °F - 75.2 °F 89% 29.74 in - East 5.8 mph - N/A   Clear
4:00 AM 78.8 °F - 75.2 °F 89% 29.74 in - East 4.6 mph - N/A   Clear
4:30 AM 77.0 °F - 73.4 °F 89% 29.74 in 6.2 mi East 5.8 mph - N/A   Scattered Clouds
5:00 AM 77.0 °F - 75.2 °F 94% 29.74 in 6.2 mi ENE 4.6 mph - N/A   Scattered Clouds
5:30 AM 78.8 °F - 73.4 °F 83% 29.77 in 6.2 mi ESE 5.8 mph - N/A   Scattered Clouds
6:00 AM 78 °F - 74 °F 84% 29.78 in 19 mi SE 5.8 mph - -   Scattered Clouds
6:00 AM 77.0 °F - 73.4 °F 89% 29.77 in 6.2 mi SE 5.8 mph - N/A   Scattered Clouds
6:30 AM 78 °F - 74 °F 82% 29.79 in - East 8.1 mph - -  
6:30 AM 78.8 °F - 73.4 °F 83% 29.77 in 6.2 mi East 8.1 mph - N/A   Mostly Cloudy
7:00 AM 78.8 °F - 73.4 °F 83% 29.77 in 6.2 mi East 8.1 mph - N/A   Mostly Cloudy
7:30 AM 80.6 °F 85.4 °F 73.4 °F 79% 29.80 in 6.2 mi East 8.1 mph - N/A   Mostly Cloudy
8:00 AM 84.2 °F 92.3 °F 75.2 °F 74% 29.80 in 6.2 mi ENE 6.9 mph - N/A   Mostly Cloudy
8:30 AM 86.0 °F 95.1 °F 75.2 °F 70% 29.83 in 6.2 mi ESE 6.9 mph - N/A   Mostly Cloudy
9:00 AM 85 °F - 75 °F 65% 29.82 in 19 mi SE 6.9 mph - -   Partly Cloudy
9:00 AM 86.0 °F 95.1 °F 75.2 °F 70% 29.83 in 6.2 mi SE 6.9 mph - N/A   Mostly Cloudy
9:30 AM 88 °F - 76 °F 59% 29.82 in - ESE 5.8 mph - -  
9:30 AM 87.8 °F 97.6 °F 75.2 °F 66% 29.80 in - ESE 5.8 mph - N/A   Clear
10:00 AM 87.8 °F 97.6 °F 75.2 °F 66% 29.80 in 6.2 mi SE 4.6 mph - N/A   Mostly Cloudy
10:30 AM 87.8 °F 97.6 °F 75.2 °F 66% 29.80 in 6.2 mi SSW 5.8 mph - N/A   Mostly Cloudy
11:00 AM 89.6 °F 99.8 °F 75.2 °F 62% 29.80 in 6.2 mi NW 9.2 mph - N/A   Mostly Cloudy
11:10 AM 86.0 °F 96.9 °F 77.0 °F 74% 29.80 in 4.3 mi NW 10.4 mph - N/A Rain Rain Showers
11:11 AM 84.2 °F 96.1 °F 78.8 °F 84% 29.80 in 0.9 mi WNW 9.2 mph - N/A Rain Rain Showers
11:30 AM 78.8 °F - 73.4 °F 83% 29.80 in 2.5 mi South 9.2 mph - N/A Rain Rain Showers
11:43 AM 78.8 °F - 71.6 °F 78% 29.80 in 6.2 mi South 6.9 mph - N/A Rain Light Rain Showers
12:00 PM 80 °F - 74 °F 77% 29.80 in 12 mi ESE 8.1 mph - - Rain Light Rain Showers
12:00 PM 80.6 °F 85.4 °F 73.4 °F 79% 29.80 in 6.2 mi ESE 8.1 mph - N/A Rain Light Rain Showers
12:16 PM 78.8 °F - 75.2 °F 89% 29.80 in 6.2 mi ENE 10.4 mph - N/A   Mostly Cloudy
12:30 PM 81 °F - 76 °F 81% 29.78 in - East 8.1 mph - -  
12:30 PM 80.6 °F 87.1 °F 77.0 °F 89% 29.77 in 6.2 mi East 8.1 mph - N/A   Mostly Cloudy
1:00 PM 82.4 °F 89.5 °F 75.2 °F 79% 29.77 in 6.2 mi East 6.9 mph - N/A   Mostly Cloudy
1:30 PM 84.2 °F 92.3 °F 75.2 °F 74% 29.74 in 6.2 mi ESE 8.1 mph - N/A   Mostly Cloudy
2:00 PM 86.0 °F 95.1 °F 75.2 °F 70% 29.74 in 6.2 mi East 6.9 mph - N/A   Mostly Cloudy
2:30 PM 87.8 °F 99.7 °F 77.0 °F 70% 29.71 in 6.2 mi ENE 4.6 mph - N/A   Mostly Cloudy
3:00 PM 88 °F - 76 °F 59% 29.70 in 19 mi NW 8.1 mph - -   Partly Cloudy
3:00 PM 87.8 °F 97.6 °F 75.2 °F 66% 29.71 in 6.2 mi NW 8.1 mph - N/A   Mostly Cloudy
3:30 PM 89 °F - 75 °F 54% 29.70 in - WNW 8.1 mph - -  
3:30 PM 89.6 °F 99.8 °F 75.2 °F 62% 29.68 in - WNW 8.1 mph - N/A   Clear
4:00 PM 89.6 °F 99.8 °F 75.2 °F 62% 29.68 in 6.2 mi West 8.1 mph - N/A   Mostly Cloudy
4:30 PM 89.6 °F 99.8 °F 75.2 °F 62% 29.68 in 6.2 mi West 8.1 mph - N/A   Mostly Cloudy
5:00 PM 89.6 °F 98.2 °F 73.4 °F 59% 29.71 in 6.2 mi WNW 8.1 mph - N/A   Mostly Cloudy
5:30 PM 89.6 °F 98.2 °F 73.4 °F 59% 29.71 in 6.2 mi WNW 8.1 mph - N/A   Mostly Cloudy
6:00 PM 88 °F - 76 °F 59% 29.71 in 19 mi West 8.1 mph - -   Partly Cloudy
6:00 PM 87.8 °F 97.6 °F 75.2 °F 66% 29.71 in 6.2 mi West 8.1 mph - N/A   Mostly Cloudy
6:30 PM 87 °F - 75 °F 60% 29.72 in - NW 6.9 mph - -  
6:30 PM 87.8 °F 97.6 °F 75.2 °F 66% 29.71 in 6.2 mi NW 6.9 mph - N/A   Mostly Cloudy
7:00 PM 86.0 °F 95.1 °F 75.2 °F 70% 29.71 in 6.2 mi NNW 6.9 mph - N/A   Mostly Cloudy
7:30 PM 86.0 °F 96.9 °F 77.0 °F 74% 29.71 in 6.2 mi NNW 9.2 mph - N/A   Mostly Cloudy
8:00 PM 86.0 °F 96.9 °F 77.0 °F 74% 29.71 in 6.2 mi NW 8.1 mph - N/A   Mostly Cloudy
8:30 PM 84.2 °F 94.1 °F 77.0 °F 79% 29.71 in 6.2 mi NNW 9.2 mph - N/A   Mostly Cloudy
9:00 PM 85 °F - 77 °F 72% 29.74 in 19 mi NW 8.1 mph - -   Partly Cloudy
9:00 PM 84.2 °F 94.1 °F 77.0 °F 79% 29.74 in 6.2 mi NW 8.1 mph - N/A   Mostly Cloudy
9:30 PM 85 °F - 77 °F 72% 29.75 in - NW 6.9 mph - -  
9:30 PM 84.2 °F 94.1 °F 77.0 °F 79% 29.74 in 6.2 mi NW 6.9 mph - N/A   Mostly Cloudy
10:00 PM 84.2 °F 94.1 °F 77.0 °F 79% 29.74 in 6.2 mi NNW 6.9 mph - N/A   Mostly Cloudy
10:30 PM 82.4 °F 90.9 °F 77.0 °F 84% 29.77 in - NNW 5.8 mph - N/A   Clear
11:00 PM 82.4 °F 90.9 °F 77.0 °F 84% 29.77 in - NNW 5.8 mph - N/A   Clear
11:30 PM 82.4 °F 90.9 °F 77.0 °F 84% 29.74 in 6.2 mi North 5.8 mph - N/A   Mostly Cloudy